CW9879 Weather Reports


time (UTC)temp
C
wind
direction
speed
KPH
gust
KPH
rain 1hr
cm
rain 24hr
cm
rain mn
cm
humidity
%
barometer
mb
20260507160024 13 231 0.0 3.2 0.00 0.05 0.05 64 1012.6
20260507154524 13 259 0.0 1.6 0.00 0.05 0.05 69 1012.7
20260507153034 13 281 0.0 1.6 0.00 0.05 0.05 67 1012.7
20260507151532 13 282 0.0 4.8 0.00 0.05 0.05 65 1012.9
20260507150020 13 176 0.0 3.2 0.00 0.05 0.05 68 1012.8
20260507144532 13 235 0.0 3.2 0.00 0.10 0.05 69 1012.8
20260507143028 13 307 0.0 3.2 0.00 0.10 0.05 69 1013.3
20260507141525 13 333 0.0 4.8 0.00 0.15 0.05 75 1013.5
20260507140020 13 136 0.0 4.8 0.00 0.20 0.05 78 1013.3
20260507134503 13 267 0.0 3.2 0.00 0.23 0.05 76 1013.4
20260507133007 13 257 0.0 4.8 0.00 0.23 0.05 75 1013.2
20260507131517 13 180 0.0 4.8 0.00 0.23 0.05 77 1013.0
20260507130013 13 187 0.0 3.2 0.00 0.25 0.05 79 1013.1
20260507124521 13 323 0.0 6.4 0.00 0.25 0.05 79 1013.1
20260507123005 13 238 0.0 6.4 0.00 0.25 0.05 80 1012.9
20260507121508 12 276 0.0 4.8 0.00 0.25 0.05 84 1012.9
20260507120011 12 138 0.0 3.2 0.00 0.25 0.05 84 1012.6
20260507114516 12 247 0.0 0.0 0.00 0.25 0.05 88 1012.6
20260507113037 12 197 0.0 0.0 0.00 0.25 0.05 88 1012.6
20260507111504 12 200 0.0 4.8 0.00 0.25 0.05 89 1012.2
20260507110011 12 181 0.0 3.2 0.00 0.25 0.05 89 1012.4
20260507104514 12 193 0.0 3.2 0.00 0.25 0.05 90 1012.3
20260507103022 12 230 0.0 1.6 0.00 0.25 0.05 90 1012.2
20260507101526 12 230 0.0 3.2 0.00 0.25 0.05 91 1011.8
20260507100007 12 349 0.0 1.6 0.00 0.25 0.05 91 1011.9
20260507094516 12 232 0.0 1.6 0.00 0.25 0.05 91 1012.3
20260507093016 12 232 0.0 0.0 0.00 0.25 0.05 91 1012.0
20260507091520 12 232 0.0 0.0 0.00 0.25 0.05 91 1012.1
20260507090024 12 232 0.0 3.2 0.00 0.25 0.05 90 1011.9
20260507084508 12 221 0.0 0.0 0.00 0.25 0.05 90 1011.5
20260507083013 12 221 0.0 0.0 0.00 0.25 0.05 90 1011.8
20260507081533 12 221 0.0 0.0 0.00 0.25 0.05 90 1011.8
20260507080024 13 329 0.0 1.6 0.00 0.25 0.05 90 1012.0
20260507074526 13 200 0.0 3.2 0.00 0.25 0.05 89 1011.3
20260507073010 13 200 0.0 0.0 0.00 0.25 0.05 90 1011.1
20260507071516 13 200 0.0 1.6 0.00 0.25 0.05 89 1010.9
20260507070022 13 178 0.0 3.2 0.00 0.25 0.05 89 1010.9
20260507064526 13 309 0.0 4.8 0.00 0.25 0.05 90 1011.3
20260507063028 14 279 0.0 3.2 0.00 0.25 0.05 90 1011.3
20260507061516 15 300 0.0 3.2 0.03 0.25 0.05 91 1011.4
20260507060020 15 5 0.0 3.2 0.03 0.25 0.05 91 1010.4
20260507054522 15 235 0.0 3.2 0.03 0.25 0.05 90 1009.6
20260507053025 16 218 0.0 1.6 0.03 0.25 0.05 90 1009.7
20260507051528 16 246 0.0 3.2 0.03 0.23 0.03 89 1010.7
20260507050007 16 293 1.6 4.8 0.03 0.23 0.03 89 1011.3
20260507044503 17 343 0.0 3.2 0.03 0.23 0.03 91 1010.8
20260507043008 17 298 0.0 0.0 0.03 0.23 0.03 91 1010.5
20260507041504 17 298 0.0 0.0 0.00 0.20 0.00 90 1010.3
20260507040004 17 298 0.0 0.0 0.00 0.20 0.00 90 1010.3
20260507034503 17 298 0.0 0.0 0.00 0.20 0.20 89 1010.4
20260507033004 17 298 0.0 0.0 0.00 0.20 0.20 89 1010.1
20260507031504 17 298 0.0 0.0 0.00 0.20 0.20 88 1010.2
20260507030007 18 298 0.0 0.0 0.00 0.20 0.20 88 1010.5
20260507024508 18 298 0.0 0.0 0.00 0.20 0.20 88 1010.0
20260507023007 18 298 0.0 0.0 0.00 0.20 0.20 87 1009.8
20260507021504 18 298 0.0 0.0 0.00 0.20 0.20 86 1009.3
20260507020008 18 293 0.0 0.0 0.00 0.20 0.20 86 1009.7
20260507014507 18 283 0.0 1.6 0.00 0.20 0.20 85 1009.8
20260507013006 19 283 0.0 3.2 0.00 0.20 0.20 85 1009.8
20260507011512 19 213 0.0 1.6 0.00 0.20 0.20 84 1009.9
20260507010008 19 303 0.0 4.8 0.00 0.20 0.20 84 1009.5
20260507004509 19 179 0.0 0.0 0.00 0.20 0.20 83 1009.4
20260507003007 20 90 0.0 3.2 0.00 0.20 0.20 82 1009.2
20260507001521 20 224 0.0 4.8 0.00 0.20 0.20 82 1009.3
20260507000013 20 244 0.0 4.8 0.00 0.20 0.20 81 1009.3
20260506234508 20 201 0.0 6.4 0.00 0.20 0.20 81 1009.3
20260506233008 20 133 0.0 6.4 0.00 0.20 0.20 81 1008.8
20260506231509 20 182 0.0 9.7 0.00 0.20 0.20 80 1008.9
20260506230011 21 186 1.6 6.4 0.00 0.20 0.20 79 1009.1
20260506224509 21 215 0.0 4.8 0.00 0.20 0.20 79 1009.0
20260506223010 21 181 0.0 4.8 0.00 0.20 0.20 78 1009.0
20260506221512 21 221 0.0 6.4 0.00 0.20 0.20 78 1009.2
20260506220012 21 126 0.0 8.0 0.00 0.20 0.20 77 1009.0
20260506214513 21 146 1.6 8.0 0.00 0.20 0.20 77 1008.9
20260506213014 21 11 1.6 9.7 0.00 0.20 0.20 76 1009.1
20260506211512 21 236 0.0 6.4 0.00 0.20 0.20 78 1009.0
20260506210022 21 135 1.6 11.3 0.00 0.20 0.20 78 1009.0
20260506204515 21 222 0.0 12.9 0.00 0.20 0.20 78 1009.0
20260506203013 20 360 0.0 6.4 0.00 0.20 0.20 79 1009.0
20260506201520 20 84 1.6 8.0 0.00 0.20 0.20 79 1009.1
20260506200003 19 245 0.0 6.4 0.00 0.20 0.20 81 1009.1
20260506194506 18 142 0.0 9.7 0.00 0.20 0.20 83 1009.0
20260506193004 18 136 1.6 8.0 0.00 0.20 0.20 83 1009.1
20260506191511 18 241 1.6 9.7 0.00 0.20 0.20 83 1009.6
20260506190002 18 160 0.0 8.0 0.00 0.20 0.20 84 1009.9
20260506184504 18 296 0.0 6.4 0.00 0.20 0.20 84 1010.1
20260506183003 18 173 1.6 8.0 0.00 0.20 0.20 84 1010.1
20260506181507 18 228 0.0 6.4 0.00 0.20 0.20 85 1010.4
20260506180012 18 127 0.0 8.0 0.00 0.20 0.20 85 1010.3
20260506174502 18 300 0.0 4.8 0.00 0.20 0.20 85 1010.1
20260506173004 17 290 1.6 6.4 0.00 0.20 0.20 86 1010.4
20260506171503 17 196 0.0 4.8 0.00 0.20 0.20 87 1010.7
20260506170006 17 157 1.6 6.4 0.00 0.20 0.20 88 1010.5
20260506164535 17 161 1.6 6.4 0.00 0.20 0.20 89 1010.9
20260506163019 16 99 1.6 12.9 0.00 0.20 0.20 89 1011.0
20260506161504 16 294 0.0 8.0 0.00 0.20 0.20 90 1011.6